格洛纳斯-767 COSMOS 2287 [GLONASS]

导读 | 豆包AI

COSMOS 2287(GLONASS),由独联体(CIS)于1994年8月11日发射,是俄罗斯GLONASS全球卫星导航系统的组成卫星。该卫星运行于近地点约19106公里、远地点约19168公里的中地球轨道,轨道倾角65.4度,运行周期约676分钟。作为GLONASS星座的早期组网卫星,它为全球范围的定位、导航与授时服务提供空间段支撑,助力该系统实现全球覆盖能力。

Basic Information
目录编号:
23203
目录名称:
COSMOS 2287 (GLONASS)
国际标识:
1994-050A
轨道中心:
EARTH
卫星名称:
格洛纳斯-767
卫星全名:
格洛纳斯-767 COSMOS 2287 [GLONASS]
卫星状态:
在轨 (已飞行11538 天)
发射日期:
1994-08-11 UTC
国别 :
俄罗斯(独联体) (CIS)
星等 :
--
Orbit Information
数据来源 国际轨道数据 AOE轨道数据
星历时间 2026-03-13T17:18:39+0800
1天前
查看轨道信息
2026-03-13T17:00:00+0800
1天前
查看轨道信息
半长轴 25508.081km 25508.113km
偏心率 0.0012508 0.0012558
轨道倾角 65.418° 65.418°
近地点辐角 22.282° 22.317°
升交点赤经 205.320° 205.321°
平近点角 335.825° 325.856°
近地点 19098.038km 19097.942km
远地点 19161.85km 19162.01km
周期 675.735分钟 675.736分钟
每日圈数 2.131013 2.131009
Detailed Information
平衡模式:
三轴稳定
覆盖范围:
全球
运营商:
列舍特涅夫卫星信息系统
运营商所在国:
俄罗斯
制造商(研发单位):
列舍特涅夫卫星信息系统
制造商所在国:
俄罗斯
使用方式:
暂无
Satellite Introduction
格洛纳斯(GLONASS )是苏联/俄罗斯研制卫星导航系统。标准配置为24颗卫星,其中18颗卫星就能保证该系统为俄罗斯境内用户提供全部服务。该卫星已退役。
2D Orbit Map
3D Orbit Map
Orbit Altitude Analysis Chart
Orbit Inclination Analysis Chart
Orbit Comprehensive Analysis Chart
View Comprehensive Chart